Location: ??
(36.7391°N, 127.5151°E)
Time: 12:28:08
(UTC+00:00)

NOSS 3-4 (A) - Pass Details

Date: 07 June 2020
Orbit: 892 x 1320 km, 63.4° (Epoch: 12 July)

Event Time Altitude Azimuth Distance (km) Brightness Sun altitude
Rises 11:42:47 0° 186° (S) 3,493 6.1 -10.1°
Reaches altitude 10° 11:45:26 10° 178° (S) 2,550 5.3 -10.5°
Maximum altitude 11:50:44 36° 113° (ESE) 1,389 3.9 -11.3°
Drops below altitude 10° 11:56:12 10° 49° (NE) 2,642 5.7 -12.2°
Sets 11:58:59 0° 41° (NE) 3,636 6.5 -12.6°
